GW6849 Weather Reports


Display with metric or nautical units.
time (UTC)temp
F
wind
direction
speed
MPH
gust
MPH
rain 1hr
in
rain 24hr
in
rain mn
in
humidity
%
barometer
mb
20260503172319 75 318 2.0 4.0 0.00 0.00 0.00 48 1011.9
20260503171815 74 359 4.0 7.0 0.00 0.00 0.00 50 1011.9
20260503171312 73 296 5.0 8.0 0.00 0.00 0.00 52 1011.8
20260503170809 74 343 4.0 7.0 0.00 0.00 0.00 52 1012.0
20260503170306 74 25 4.0 7.0 0.00 0.00 0.00 52 1011.7
20260503150658 63 141 0.0 0.0 0.00 0.00 0.00 84 1012.3
20260503150154 63 141 0.0 0.0 0.00 0.00 0.00 80 1012.1
20260503140118 55 141 0.0 0.0 0.00 0.00 0.00 93 1012.3
20260503131048 53 142 0.0 0.0 0.00 0.00 0.00 96 1011.9
20260503130545 53 142 0.0 0.0 0.00 0.00 0.00 96 1012.0
20260503110435 55 142 0.0 0.0 0.00 0.00 0.00 94 1012.1
20260503090326 53 142 0.0 0.0 0.00 0.00 0.00 95 1012.4
20260503081254 54 142 0.0 0.0 0.00 0.00 0.00 94 1012.6
20260503080749 54 142 0.0 0.0 0.00 0.00 0.00 94 1012.6
20260503080247 54 142 0.0 0.0 0.00 0.00 0.00 93 1012.5
20260503072724 55 142 0.0 0.0 0.00 0.00 0.00 92 1013.2
20260503072220 55 142 0.0 0.0 0.00 0.00 0.00 90 1013.0
20260503071717 56 142 0.0 0.0 0.00 0.00 0.00 91 1012.9
20260503071214 55 142 0.0 0.0 0.00 0.00 0.00 90 1013.1
20260503070711 55 142 0.0 0.0 0.00 0.00 0.00 91 1013.1
20260503070209 55 142 0.0 0.0 0.00 0.00 0.00 89 1013.1
20260503060133 58 142 0.0 0.0 0.00 0.00 0.00 86 1013.0
20260503055125 58 142 0.0 0.0 0.00 0.00 0.00 86 1013.0
20260503054620 58 142 0.0 0.0 0.00 0.00 0.00 86 1013.1
20260503054117 58 142 0.0 0.0 0.00 0.00 0.00 86 1013.0
20260503053615 58 142 0.0 0.0 0.00 0.00 0.00 85 1013.0
20260503053114 59 142 0.0 0.0 0.00 0.00 0.00 85 1013.1
20260503052610 59 142 0.0 0.0 0.00 0.00 0.00 84 1013.0
20260503052106 59 142 0.0 0.0 0.00 0.00 0.00 84 1013.1
20260503051601 59 142 0.0 0.0 0.00 0.00 0.00 84 1012.9
20260503051100 59 142 0.0 0.0 0.00 0.00 0.00 83 1012.9
20260503050555 59 142 0.0 0.0 0.00 0.00 0.00 83 1012.8
20260503050053 59 141 0.0 0.0 0.00 0.00 0.00 82 1012.9
20260503045550 59 142 0.0 0.0 0.00 0.00 0.00 83 1013.0
20260503045047 59 141 0.0 0.0 0.00 0.00 0.00 83 1012.8
20260503044544 59 142 0.0 0.0 0.00 0.00 0.00 83 1013.1
20260503044041 60 142 0.0 0.0 0.00 0.00 0.00 83 1013.0
20260503043537 60 142 0.0 0.0 0.00 0.00 0.00 82 1013.0
20260503043034 60 142 0.0 0.0 0.00 0.00 0.00 82 1012.8
20260503042531 60 141 0.0 0.0 0.00 0.00 0.00 82 1012.8
20260503042027 60 141 0.0 0.0 0.00 0.00 0.00 82 1012.8
20260503041524 60 142 0.0 0.0 0.00 0.00 0.00 82 1012.8
20260503041022 60 141 0.0 0.0 0.00 0.00 0.00 81 1012.6
20260503040519 60 142 0.0 0.0 0.00 0.00 0.00 81 1012.5
20260503040016 60 142 0.0 0.0 0.00 0.00 0.00 82 1012.6
20260503035513 60 142 0.0 0.0 0.00 0.00 0.00 82 1012.6
20260503035011 60 142 0.0 0.0 0.00 0.00 0.00 82 1012.4
20260503034508 60 142 0.0 0.0 0.00 0.00 0.00 82 1012.4
20260503034004 60 142 0.0 0.0 0.00 0.00 0.00 81 1012.1
20260503033501 60 142 0.0 0.0 0.00 0.00 0.00 81 1012.1
20260503033000 60 142 0.0 0.0 0.00 0.00 0.00 81 1011.9
20260503032458 61 142 0.0 0.0 0.00 0.00 0.00 80 1011.8
20260503031955 61 142 0.0 0.0 0.00 0.00 0.00 81 1011.8
20260503031453 61 142 0.0 0.0 0.00 0.00 0.00 80 1011.8
20260503030949 61 142 0.0 0.0 0.00 0.00 0.00 80 1011.7
20260503030446 61 142 0.0 1.0 0.00 0.00 0.00 80 1011.8
20260503025943 62 136 0.0 0.0 0.00 0.00 0.00 80 1011.5
20260503025440 62 138 1.0 1.0 0.00 0.00 0.00 79 1011.9
20260503024938 62 107 0.0 0.0 0.00 0.00 0.00 75 1012.0
20260503024434 62 108 0.0 0.0 0.00 0.00 0.00 77 1012.1
20260503023931 62 111 0.0 0.0 0.00 0.00 0.00 78 1012.2
20260503023428 63 112 0.0 1.0 0.00 0.00 0.00 77 1012.4
20260503022925 64 22 0.0 0.0 0.00 0.00 0.00 76 1012.6
20260503022420 63 18 0.0 0.0 0.00 0.00 0.00 77 1012.5
20260503021916 64 22 0.0 0.0 0.00 0.00 0.00 75 1012.6
20260503021412 64 14 1.0 1.0 0.00 0.00 0.00 72 1012.9
20260503020909 65 316 3.0 3.0 0.00 0.00 0.00 70 1013.3
20260503020407 66 312 2.0 2.0 0.00 0.00 0.00 68 1013.2
20260503015903 65 282 2.0 2.0 0.00 0.00 0.00 68 1013.4
20260503015401 66 304 2.0 2.0 0.00 0.00 0.00 67 1013.1
20260503014856 66 303 0.0 0.0 0.00 0.00 0.00 66 1013.1
20260503014354 67 249 4.0 6.0 0.00 0.00 0.00 64 1013.0
20260503013852 68 299 0.0 1.0 0.00 0.00 0.00 62 1012.7
20260503013348 67 298 0.0 0.0 0.00 0.00 0.00 62 1012.6
20260503012845 68 317 4.0 4.0 0.00 0.00 0.00 62 1012.6
20260503012343 68 332 0.0 0.0 0.00 0.00 0.00 62 1012.5
20260503011840 69 310 2.0 3.0 0.00 0.00 0.00 63 1012.5
20260503011337 69 354 1.0 2.0 0.00 0.00 0.00 60 1012.4
20260503010833 69 326 2.0 2.0 0.00 0.00 0.00 59 1012.4
20260503010330 69 323 0.0 1.0 0.00 0.00 0.00 61 1012.3
20260503005827 68 304 1.0 2.0 0.00 0.00 0.00 61 1012.5
20260503005325 68 343 2.0 4.0 0.00 0.00 0.00 62 1012.6
20260503004820 70 314 5.0 8.0 0.00 0.00 0.00 58 1012.3
20260503004318 71 334 1.0 1.0 0.00 0.00 0.00 56 1012.3
20260503003816 70 19 2.0 2.0 0.00 0.00 0.00 56 1012.3
20260503003312 71 332 3.0 4.0 0.00 0.00 0.00 54 1012.3
20260503002809 70 327 4.0 4.0 0.00 0.00 0.00 55 1012.1
20260503002306 71 328 1.0 2.0 0.00 0.00 0.00 54 1012.2
20260503001803 72 317 3.0 4.0 0.00 0.00 0.00 51 1012.1
20260503001259 71 330 4.0 6.0 0.00 0.00 0.00 53 1012.1
20260503000757 71 305 5.0 8.0 0.00 0.00 0.00 54 1012.1
20260503000253 72 357 4.0 7.0 0.00 0.00 0.00 54 1012.2
20260502235751 71 331 2.0 3.0 0.00 0.00 0.00 57 1012.1
20260502235249 71 4 4.0 4.0 0.00 0.00 0.00 60 1012.3
20260502234744 71 17 3.0 4.0 0.00 0.00 0.00 57 1012.3
20260502234242 70 332 2.0 3.0 0.00 0.00 0.00 59 1012.1
20260502233738 69 321 1.0 2.0 0.00 0.00 0.00 59 1012.1
20260502233235 71 348 3.0 4.0 0.00 0.00 0.00 57 1012.5
20260502232730 72 350 1.0 2.0 0.00 0.00 0.00 51 1012.3
20260502232228 70 350 0.0 0.0 0.00 0.00 0.00 52 1012.5
20260502231724 71 349 2.0 3.0 0.00 0.00 0.00 55 1012.6
20260502231222 70 302 2.0 2.0 0.00 0.00 0.00 57 1012.7
20260502230721 70 304 4.0 4.0 0.00 0.00 0.00 57 1012.7
20260502230219 70 358 2.0 3.0 0.00 0.00 0.00 55 1012.9
20260502225714 70 318 4.0 6.0 0.00 0.00 0.00 56 1013.0
20260502225212 70 234 2.0 3.0 0.00 0.00 0.00 55 1012.9
20260502224708 71 349 0.0 2.0 0.00 0.00 0.00 54 1012.9
20260502224205 71 9 3.0 3.0 0.00 0.00 0.00 57 1013.0
20260502223702 70 309 2.0 3.0 0.00 0.00 0.00 59 1013.3
20260502223200 71 22 1.0 1.0 0.00 0.00 0.00 58 1013.4
20260502222658 69 339 2.0 4.0 0.00 0.00 0.00 58 1013.7
20260502222154 70 286 1.0 3.0 0.00 0.00 0.00 56 1013.7
20260502221649 68 310 4.0 4.0 0.00 0.00 0.00 57 1013.5
20260502221147 68 321 2.0 2.0 0.00 0.00 0.00 57 1013.8
20260502220643 67 11 1.0 2.0 0.00 0.00 0.00 57 1013.7
20260502220139 68 353 1.0 1.0 0.00 0.00 0.00 61 1013.6
20260502215637 68 307 2.0 3.0 0.00 0.00 0.00 61 1013.7
20260502215133 66 277 3.0 6.0 0.00 0.00 0.00 63 1013.8
20260502214631 67 309 7.0 8.0 0.00 0.00 0.00 62 1013.9
20260502214128 66 313 2.0 3.0 0.00 0.00 0.00 63 1014.0
20260502213625 67 289 1.0 2.0 0.00 0.00 0.00 61 1014.1
20260502213122 65 275 4.0 7.0 0.00 0.00 0.00 62 1014.0
20260502212621 66 313 5.0 7.0 0.00 0.00 0.00 62 1014.0
20260502212119 66 318 3.0 4.0 0.00 0.00 0.00 62 1014.2
20260502211614 66 351 4.0 6.0 0.00 0.00 0.00 63 1014.1
20260502211111 66 345 3.0 4.0 0.00 0.00 0.00 62 1014.1
20260502210609 64 215 0.0 1.0 0.00 0.00 0.00 61 1014.5
20260502210106 66 341 2.0 3.0 0.00 0.00 0.00 62 1014.5
20260502205602 65 318 2.0 3.0 0.00 0.00 0.00 63 1014.5
20260502205100 63 15 1.0 2.0 0.00 0.00 0.00 65 1014.6
20260502204556 63 342 0.0 1.0 0.00 0.00 0.00 64 1014.8
20260502204054 64 8 2.0 4.0 0.00 0.00 0.00 64 1014.7
20260502203550 63 344 2.0 2.0 0.00 0.00 0.00 64 1014.7
20260502203048 62 300 2.0 3.0 0.00 0.00 0.00 65 1014.7
20260502202543 63 332 4.0 7.0 0.00 0.00 0.00 65 1014.8
20260502202042 62 317 2.0 2.0 0.00 0.00 0.00 64 1015.0
20260502201537 62 325 2.0 3.0 0.00 0.00 0.00 64 1015.0
20260502201034 62 293 2.0 2.0 0.00 0.00 0.00 63 1014.9
20260502200530 63 326 2.0 2.0 0.00 0.00 0.00 63 1015.1
20260502200028 61 308 5.0 6.0 0.00 0.00 0.00 65 1015.1
20260502195526 64 306 2.0 3.0 0.00 0.00 0.00 61 1015.3
20260502195021 63 327 2.0 3.0 0.00 0.00 0.00 61 1015.2
20260502194518 60 333 0.0 0.0 0.00 0.00 0.00 65 1015.5
20260502194014 60 0 0.0 0.0 0.00 0.00 0.00 62 1015.6
20260502193512 60 18 1.0 1.0 0.00 0.00 0.00 64 1015.8
20260502193009 60 315 2.0 6.0 0.00 0.00 0.00 68 1015.6
20260502192504 61 306 1.0 2.0 0.00 0.00 0.00 65 1015.9
20260502192002 60 320 1.0 2.0 0.00 0.00 0.00 69 1015.9
20260502191459 59 325 1.0 1.0 0.00 0.00 0.00 65 1016.0
20260502190956 56 352 0.0 0.0 0.00 0.00 0.00 72 1016.1
20260502190453 57 358 1.0 1.0 0.00 0.00 0.00 72 1016.2
20260502185950 57 343 2.0 3.0 0.00 0.00 0.00 74 1015.9
20260502185445 57 312 0.0 1.0 0.00 0.00 0.00 71 1016.0
20260502184942 57 314 2.0 3.0 0.00 0.00 0.00 70 1016.0
20260502184437 57 261 1.0 2.0 0.00 0.00 0.00 70 1015.9
20260502183934 57 302 0.0 0.0 0.00 0.00 0.00 73 1016.0
20260502183431 55 301 2.0 3.0 0.00 0.00 0.00 73 1016.1
20260502182926 55 264 0.0 0.0 0.00 0.00 0.00 75 1016.1
20260502182422 55 306 3.0 3.0 0.00 0.00 0.00 76 1016.3
20260502181918 54 313 0.0 0.0 0.00 0.00 0.00 76 1016.0
20260502181417 53 317 1.0 1.0 0.00 0.00 0.00 78 1016.2
20260502180915 54 316 0.0 1.0 0.00 0.00 0.00 79 1016.2
20260502180412 53 353 1.0 2.0 0.00 0.00 0.00 79 1016.3